Estación de San Nicolás
Ultimos registro cada 15 minutos 32
| N° | Estación | Fecha / Hora | Temperatura | Humedad | Lluvia | Velocidad | Dirección | Radiación | Presion |
| 32 | San Nicolás | 05-09-2026 07:45 | 4,5 | 95 | 0 | 0,9 | 280 | 100 | 1019,4 |
| 31 | San Nicolás | 05-09-2026 07:30 | 4,1 | 95 | 0 | 0,4 | 280 | 54 | 1019,1 |
| 30 | San Nicolás | 05-09-2026 07:15 | 3,8 | 94 | 0 | 0,9 | 283 | 16 | 1019,2 |
| 29 | San Nicolás | 05-09-2026 07:00 | 3,6 | 94 | 0 | 0,9 | 284 | 0 | 1019,3 |
| 28 | San Nicolás | 05-09-2026 06:45 | 3,6 | 93 | 0 | 0 | 284 | 0 | 1019,3 |
| 27 | San Nicolás | 05-09-2026 06:30 | 3,7 | 94 | 0 | 0 | 284 | 0 | 1019,3 |
| 26 | San Nicolás | 05-09-2026 06:15 | 3,8 | 93 | 0 | 0 | 284 | 0 | 1019,3 |
| 25 | San Nicolás | 05-09-2026 06:00 | 3,8 | 93 | 0 | 0,4 | 284 | 0 | 1019,5 |
| 24 | San Nicolás | 05-09-2026 05:45 | 4,2 | 93 | 0 | 0,9 | 284 | 0 | 1019,4 |
| 23 | San Nicolás | 05-09-2026 05:30 | 4,5 | 93 | 0 | 0 | 284 | 0 | 1019,5 |
| 22 | San Nicolás | 05-09-2026 05:15 | 4,5 | 93 | 0 | 0,4 | 270 | 0 | 1019,5 |
| 21 | San Nicolás | 05-09-2026 05:00 | 4,3 | 93 | 0 | 1,3 | 275 | 0 | 1019,5 |
| 20 | San Nicolás | 05-09-2026 04:45 | 4,3 | 93 | 0 | 0,9 | 277 | 0 | 1019,7 |
| 19 | San Nicolás | 05-09-2026 04:30 | 4,6 | 92 | 0 | 0 | 277 | 0 | 1020 |
| 18 | San Nicolás | 05-09-2026 04:15 | 4,8 | 92 | 0 | 0 | 277 | 0 | 1019,9 |
| 17 | San Nicolás | 05-09-2026 04:00 | 4,9 | 92 | 0 | 0,4 | 277 | 0 | 1020,1 |
| 16 | San Nicolás | 05-09-2026 03:45 | 4,9 | 92 | 0 | 0 | 277 | 0 | 1020,1 |
| 15 | San Nicolás | 05-09-2026 03:30 | 5 | 92 | 0 | 0,4 | 277 | 0 | 1020,3 |
| 14 | San Nicolás | 05-09-2026 03:15 | 5,1 | 91 | 0 | 0,9 | 277 | 0 | 1020,6 |
| 13 | San Nicolás | 05-09-2026 03:00 | 5,2 | 91 | 0 | 0,9 | 278 | 0 | 1020,8 |
| 12 | San Nicolás | 05-09-2026 02:45 | 5,6 | 90 | 0 | 0,9 | 273 | 0 | 1020,9 |
| 11 | San Nicolás | 05-09-2026 02:30 | 5,8 | 90 | 0 | 0,9 | 249 | 0 | 1021,1 |
| 10 | San Nicolás | 05-09-2026 02:15 | 5,8 | 90 | 0 | 2,2 | 247 | 0 | 1021,1 |
| 9 | San Nicolás | 05-09-2026 02:00 | 5,9 | 90 | 0 | 1,8 | 256 | 0 | 1021,4 |
| 8 | San Nicolás | 05-09-2026 01:45 | 6,1 | 89 | 0 | 0,9 | 277 | 0 | 1021,8 |
| 7 | San Nicolás | 05-09-2026 01:30 | 6,4 | 88 | 0 | 1,8 | 293 | 0 | 1021,9 |
| 6 | San Nicolás | 05-09-2026 01:15 | 6,7 | 87 | 0 | 1,3 | 251 | 0 | 1021,9 |
| 5 | San Nicolás | 05-09-2026 01:00 | 6,9 | 87 | 0 | 2,2 | 244 | 0 | 1022,1 |
| 4 | San Nicolás | 05-09-2026 00:45 | 7,1 | 87 | 0 | 3,1 | 262 | 0 | 1022,2 |
| 3 | San Nicolás | 05-09-2026 00:30 | 7,1 | 86 | 0 | 2,7 | 238 | 0 | 1022,4 |
| 2 | San Nicolás | 05-09-2026 00:15 | 7,3 | 85 | 0 | 1,8 | 244 | 0 | 1022,5 |
| 1 | San Nicolás | 05-09-2026 00:00 | 7,4 | 85 | 0 | 3,6 | 246 | 0 | 1022,7 |